Anaktuvuk Pass, AK

10:47 AM AKDT on March 27, 2017 (GMT -0800)
Anaktuvuk Pass

Weather History for PAKP - February, 2014

Change the Weather History Date:

Monday, February 10, 2014

  Actual Average Record
Temperature  
Mean Temperature -12 °F -  
Max Temperature -4 °F -1 °F 21 °F (2012)
Min Temperature -18 °F -11 °F -32 °F (1999)
Degree Days  
Heating Degree Days 76    
Moisture  
Dew Point -22 °F    
Average Humidity 57    
Maximum Humidity 70    
Minimum Humidity 49    
Precipitation  
Precipitation 0.00 in - - ()
Sea Level Pressure  
Sea Level Pressure 30.15 in    
Wind  
Wind Speed 10 mph (South)    
Max Wind Speed 21 mph    
Max Gust Speed 25 mph    
Visibility 8 miles    
Events      
Averages and records for this station are not official NWS values.
T = Trace of Precipitation, MM = Missing Value Source: NWS Daily Summary

Daily Weather History Graph

Daily Weather History Graph

Search for Another Location

Airport or City:

Trip Planner

Search our weather history database for the weather conditions in past years. The results will help you decide how hot, cold, wet, or windy it might be!

Date:

Astronomy

Feb. 10, 2014 Rise Set
Actual Time 9:45 AM AKST 4:57 PM AKST
Civil Twilight 8:40 AM AKST 6:02 PM AKST
Nautical Twilight 7:33 AM AKST 7:10 PM AKST
Astronomical Twilight 6:29 AM AKST 8:14 PM AKST
Moon 12:27 PM AKST (2/10) 7:56 AM AKST (2/10)
Length of Visible Light 9h 21m
Length of Day
7h 12m
Waxing Gibbous, 85% of the Moon is Illuminated
Feb 10
Waxing Gibbous
Feb 14
Full
Feb 22
Last Quarter
Feb 28
New
Mar 8
First Quarter

Hourly Weather History & Observations

Time (AKST) Temp. Windchill Dew Point Humidity Pressure Visibility Wind Dir Wind Speed Gust Speed Precip Events Conditions
12:16 AM -16.6 °F -34.4 °F -27.4 °F 58% 30.43 in 10.0 mi North 8.1 mph - N/A   Clear
12:36 AM -14.8 °F - -25.6 °F 58% 30.42 in 10.0 mi Calm Calm - N/A   Clear
12:56 AM -16.6 °F -31.3 °F -27.4 °F 58% 30.41 in 10.0 mi NNE 5.8 mph - N/A   Clear
1:16 AM -18.4 °F -31.4 °F -29.2 °F 58% 30.39 in 10.0 mi North 4.6 mph - N/A   Clear
1:36 AM -18.4 °F - -29.2 °F 58% 30.38 in 10.0 mi Calm Calm - N/A   Clear
1:56 AM -16.6 °F -31.3 °F -27.4 °F 58% 30.37 in 10.0 mi North 5.8 mph - N/A   Clear
2:16 AM -14.8 °F -32.2 °F -23.8 °F 64% 30.37 in 10.0 mi NE 8.1 mph - N/A   Clear
2:36 AM -14.8 °F -33.5 °F -27.4 °F 53% 30.38 in 10.0 mi North 9.2 mph - N/A   Clear
2:56 AM -16.6 °F -34.4 °F -27.4 °F 58% 30.37 in 10.0 mi North 8.1 mph - N/A   Clear
3:16 AM -16.6 °F -32.9 °F -27.4 °F 58% 30.36 in 10.0 mi NNE 6.9 mph - N/A   Clear
3:36 AM -18.4 °F - -29.2 °F 58% 30.36 in 10.0 mi Calm Calm - N/A   Clear
3:56 AM -16.6 °F - -27.4 °F 58% 30.34 in 10.0 mi Calm Calm - N/A   Clear
4:16 AM -18.4 °F -33.4 °F - N/A% 30.34 in 10.0 mi South 5.8 mph - N/A   Clear
4:36 AM -18.4 °F -39.1 °F - N/A% 30.34 in 10.0 mi South 10.4 mph - N/A   Clear
4:56 AM -18.4 °F -35.1 °F -25.6 °F 70% 30.33 in 10.0 mi South 6.9 mph - N/A   Clear
5:16 AM -18.4 °F -37.9 °F -29.2 °F 58% 30.33 in 10.0 mi South 9.2 mph - N/A   Clear
5:36 AM -16.6 °F -36.8 °F -25.6 °F 64% 30.32 in 10.0 mi South 10.4 mph - N/A   Clear
5:56 AM -16.6 °F -36.8 °F -27.4 °F 58% 30.30 in 10.0 mi South 10.4 mph - N/A   Clear
6:16 AM -16.6 °F -36.8 °F -27.4 °F 58% 30.29 in 10.0 mi South 10.4 mph - N/A   Clear
6:36 AM -14.8 °F -34.6 °F -25.6 °F 58% 30.29 in 10.0 mi South 10.4 mph - N/A   Clear
6:56 AM -14.8 °F -35.6 °F -23.8 °F 64% 30.28 in 10.0 mi South 11.5 mph - N/A   Clear
7:16 AM -14.8 °F -34.6 °F -25.6 °F 58% 30.27 in 10.0 mi South 10.4 mph - N/A   Clear
7:36 AM -13.0 °F -34.3 °F -25.6 °F 53% 30.26 in 9.0 mi South 12.7 mph 16.1 mph N/A   Clear
7:56 AM -13.0 °F -35.2 °F -23.8 °F 59% 30.25 in 10.0 mi South 13.8 mph - N/A   Clear
8:16 AM -14.8 °F -38.3 °F -25.6 °F 58% 30.25 in 10.0 mi South 15.0 mph - N/A   Clear
8:36 AM -14.8 °F -39.8 °F -25.6 °F 58% 30.23 in 10.0 mi South 17.3 mph - N/A   Clear
8:56 AM -13.0 °F -38.2 °F -25.6 °F 53% 30.23 in 10.0 mi South 18.4 mph - N/A   Clear
9:16 AM -14.8 °F -39.8 °F -25.6 °F 58% 30.22 in 10.0 mi South 17.3 mph - N/A   Clear
9:36 AM -13.0 °F -38.2 °F -23.8 °F 59% 30.21 in 1.5 mi South 18.4 mph 24.2 mph N/A   Clear
9:56 AM -13.0 °F -38.8 °F -23.8 °F 59% 30.20 in 3.0 mi South 19.6 mph - N/A   Clear
10:16 AM -13.0 °F -39.4 °F -23.8 °F 59% 30.19 in 4.0 mi South 20.7 mph 25.3 mph N/A   Clear
10:36 AM -11.2 °F -37.0 °F -20.2 °F 64% 30.19 in 3.0 mi South 20.7 mph 25.3 mph N/A   Clear
10:56 AM -11.2 °F -35.8 °F -23.8 °F 54% 30.17 in 5.0 mi South 18.4 mph 23.0 mph N/A   Clear
11:16 AM -11.2 °F -36.4 °F -25.6 °F 49% 30.16 in 5.0 mi South 19.6 mph - N/A   Clear
11:36 AM -11.2 °F -37.0 °F -22.0 °F 59% 30.16 in 7.0 mi South 20.7 mph 24.2 mph N/A   Clear
11:56 AM -9.4 °F -30.6 °F -20.2 °F 59% 30.15 in 8.0 mi South 13.8 mph 20.7 mph N/A   Clear
12:16 PM -9.4 °F -34.7 °F -20.2 °F 59% 30.14 in 3.0 mi SSW 20.7 mph - N/A   Clear
12:36 PM -9.4 °F -32.1 °F -20.2 °F 59% 30.13 in 3.0 mi SW 16.1 mph 23.0 mph N/A   Clear
12:56 PM -9.4 °F -31.4 °F -22.0 °F 54% 30.12 in 5.0 mi SSW 15.0 mph - N/A   Clear
1:16 PM -9.4 °F -32.8 °F -22.0 °F 54% 30.12 in 7.0 mi SSW 17.3 mph 24.2 mph N/A   Clear
1:36 PM -11.2 °F -34.4 °F -23.8 °F 54% 30.11 in 5.0 mi South 16.1 mph - N/A   Clear
1:56 PM -11.2 °F -35.8 °F -25.6 °F 49% 30.10 in 10.0 mi South 18.4 mph - N/A   Clear
2:16 PM -9.4 °F -33.5 °F -23.8 °F 49% 30.09 in 7.0 mi South 18.4 mph - N/A   Clear
2:36 PM -11.2 °F -35.2 °F -23.8 °F 54% 30.09 in 10.0 mi South 17.3 mph 23.0 mph N/A   Mostly Cloudy
2:56 PM -7.6 °F -29.8 °F -18.4 °F 59% 30.08 in 5.0 mi SSW 16.1 mph 24.2 mph N/A   Mostly Cloudy
3:16 PM -7.6 °F -29.1 °F -20.2 °F 54% 30.06 in 5.0 mi South 15.0 mph 20.7 mph N/A   Overcast
3:36 PM -9.4 °F -31.4 °F -22.0 °F 54% 30.06 in 10.0 mi SSW 15.0 mph - N/A   Overcast
3:56 PM -7.6 °F -31.7 °F -20.2 °F 54% 30.04 in 5.0 mi South 19.6 mph 23.0 mph N/A   Overcast
4:16 PM -7.6 °F -30.5 °F -20.2 °F 54% 30.04 in 9.0 mi South 17.3 mph 24.2 mph N/A   Overcast
4:36 PM -9.4 °F -32.8 °F -23.8 °F 49% 30.02 in 10.0 mi South 17.3 mph 23.0 mph N/A   Overcast
4:56 PM -7.6 °F -30.5 °F -22.0 °F 50% 30.02 in 10.0 mi South 17.3 mph - N/A   Overcast
5:16 PM -7.6 °F -30.5 °F -20.2 °F 54% 30.01 in 10.0 mi South 17.3 mph - N/A   Overcast
5:36 PM -5.8 °F -26.0 °F -18.4 °F 55% 30.00 in 10.0 mi South 13.8 mph - N/A   Overcast
5:56 PM -7.6 °F -29.8 °F -20.2 °F 54% 29.99 in 10.0 mi South 16.1 mph - N/A   Overcast
6:16 PM -7.6 °F -29.8 °F -20.2 °F 54% 29.98 in 10.0 mi South 16.1 mph - N/A   Overcast
6:36 PM -7.6 °F -29.8 °F -22.0 °F 50% 29.98 in 10.0 mi South 16.1 mph - N/A   Overcast
6:56 PM -7.6 °F -28.3 °F -20.2 °F 54% 29.97 in 10.0 mi South 13.8 mph - N/A   Overcast
7:16 PM -5.8 °F -26.8 °F -18.4 °F 55% 29.96 in 10.0 mi South 15.0 mph - N/A   Overcast
7:36 PM -5.8 °F -26.0 °F -18.4 °F 55% 29.96 in 10.0 mi South 13.8 mph - N/A   Overcast
7:56 PM -5.8 °F -26.0 °F -18.4 °F 55% 29.95 in 10.0 mi South 13.8 mph - N/A   Overcast
8:16 PM -5.8 °F -26.8 °F -18.4 °F 55% 29.94 in 5.0 mi South 15.0 mph - N/A   Overcast
8:36 PM -5.8 °F -24.4 °F -18.4 °F 55% 29.94 in 5.0 mi South 11.5 mph - N/A   Overcast
8:56 PM -5.8 °F -21.2 °F -16.6 °F 60% 29.93 in 4.0 mi South 8.1 mph - N/A   Overcast
9:16 PM -5.8 °F -19.9 °F -16.6 °F 60% 29.93 in 5.0 mi South 6.9 mph - N/A   Overcast
9:36 PM -5.8 °F -19.9 °F -16.6 °F 60% 29.93 in 2.5 mi SSW 6.9 mph - N/A   Overcast
9:56 PM -5.8 °F -18.4 °F -14.8 °F 65% 29.92 in 2.0 mi SSW 5.8 mph - N/A   Overcast
10:16 PM -5.8 °F -16.7 °F -14.8 °F 65% 29.92 in 3.0 mi SSW 4.6 mph - N/A   Overcast
10:36 PM -5.8 °F - -14.8 °F 65% 29.92 in 2.0 mi Calm Calm - N/A   Overcast
10:56 PM -5.8 °F - -14.8 °F 65% 29.91 in 2.0 mi Calm Calm - N/A   Overcast
11:16 PM -5.8 °F - -14.8 °F 65% 29.91 in 1.5 mi Calm Calm - N/A   Overcast
11:36 PM -5.8 °F - -14.8 °F 65% 29.90 in 2.0 mi Calm Calm - N/A   Overcast
11:56 PM -4.0 °F - -14.8 °F 60% 29.90 in 2.0 mi Calm Calm - N/A   Overcast